KB1JDX Weather Reports


Display with metric or nautical units.
time (UTC)temp
F
wind
direction
speed
MPH
gust
MPH
rain 1hr
in
rain 24hr
in
rain mn
in
humidity
%
barometer
mb
20260906145207 62 84 0.0 0.0 0.00 0.00 0.00 100 1015.7
20260906143207 61 84 0.0 0.0 0.00 0.00 0.00 100 1015.8
20260906143104 61 84 0.0 0.0 0.00 0.00 0.00 100 1015.8
20260906141207 61 84 0.0 0.0 0.00 0.00 0.00 100 1015.8
20260906135207 61 84 0.0 0.0 0.00 0.00 0.00 100 1015.5
20260906133207 60 84 0.0 0.0 0.00 0.00 0.00 100 1015.7
20260906133104 60 84 0.0 0.0 0.00 0.00 0.00 100 1015.7
20260906131207 59 84 0.0 0.0 0.00 0.00 0.00 100 1015.5
20260906125207 59 84 0.0 0.0 0.00 0.00 0.00 100 1015.3
20260906123207 59 84 0.0 0.0 0.00 0.00 0.00 100 1015.4
20260906123104 59 84 0.0 0.0 0.00 0.00 0.00 100 1015.4
20260906121207 59 84 0.0 0.0 0.00 0.00 0.00 100 1015.2
20260906115207 59 84 0.0 0.0 0.00 0.00 0.00 100 1015.1
20260906113207 60 84 0.0 0.0 0.00 0.00 0.00 100 1014.7
20260906113104 60 84 0.0 0.0 0.00 0.00 0.00 100 1014.6
20260906111207 60 84 0.0 0.0 0.00 0.00 0.00 100 1014.3
20260906105207 60 84 0.0 0.0 0.00 0.00 0.00 100 1014.0
20260906103207 60 84 0.0 0.0 0.00 0.00 0.00 100 1013.8
20260906103104 60 84 0.0 0.0 0.00 0.00 0.00 100 1013.7
20260906101207 60 84 0.0 0.0 0.00 0.00 0.00 100 1013.3
20260906095207 60 84 0.0 0.0 0.00 0.00 0.00 100 1013.2
20260906093207 60 84 0.0 0.0 0.00 0.00 0.00 100 1013.0
20260906093104 60 84 0.0 0.0 0.00 0.00 0.00 100 1012.9
20260906085207 60 84 0.0 0.0 0.00 0.00 0.00 100 1012.9
20260906083206 60 84 0.0 0.0 0.00 0.00 0.00 100 1012.8
20260906083104 60 84 0.0 0.0 0.00 0.00 0.00 100 1012.9
20260906081207 60 84 0.0 0.0 0.00 0.00 0.00 100 1012.8
20260906073207 61 84 0.0 0.0 0.00 0.00 0.00 100 1012.8
20260906073104 61 84 0.0 0.0 0.00 0.00 0.00 100 1012.7
20260906065207 61 84 0.0 0.0 0.00 0.00 0.00 100 1012.6
20260906063207 61 84 0.0 0.0 0.00 0.00 0.00 100 1012.6
20260906063104 61 84 0.0 0.0 0.00 0.00 0.00 100 1012.6
20260906055207 61 84 0.0 0.0 0.00 0.00 0.00 100 1012.7
20260906053207 61 84 0.0 0.0 0.00 0.00 0.00 100 1012.7
20260906053104 61 84 0.0 0.0 0.00 0.00 0.00 100 1012.7
20260906051206 61 84 0.0 0.0 0.00 0.00 0.00 100 1013.0
20260906045206 61 84 0.0 0.0 0.00 0.00 0.00 100 1013.0
20260906043208 61 84 0.0 0.0 0.00 0.00 0.00 100 1012.9
20260906043104 61 84 0.0 0.0 0.00 0.00 0.00 100 1012.9
20260906041207 61 84 0.0 0.0 0.00 0.00 0.00 100 1012.9
20260906033104 61 84 0.0 0.0 0.00 0.00 0.00 100 1012.9
20260906031207 61 84 0.0 0.0 0.00 0.00 0.00 100 1012.8
20260906025207 61 84 0.0 0.0 0.00 0.00 0.00 100 1012.5
20260906023104 62 83 0.0 0.0 0.00 0.00 0.00 100 1012.6
20260906021206 62 84 0.0 0.0 0.00 0.00 0.00 100 1012.6
20260906015207 62 84 0.0 0.0 0.00 0.00 0.00 100 1012.8
20260906013206 63 310 0.0 0.0 0.00 0.00 0.00 100 1012.8
20260906013104 63 310 0.0 0.0 0.00 0.00 0.00 100 1012.8
20260906011206 64 309 0.0 0.0 0.00 0.00 0.00 100 1012.6
20260906005207 65 310 0.0 0.0 0.00 0.00 0.00 100 1012.4
20260906003207 65 310 0.0 0.0 0.00 0.00 0.00 100 1012.3
20260906003104 65 309 0.0 0.0 0.00 0.00 0.00 100 1012.1
20260906001207 65 309 0.0 0.0 0.00 0.00 0.00 100 1011.7
20260905235206 66 309 0.0 0.0 0.00 0.00 0.00 100 1011.4
20260905233206 66 309 0.0 0.0 0.00 0.00 0.00 100 1011.3
20260905233103 66 310 0.0 0.0 0.00 0.00 0.00 100 1011.3
20260905231206 67 310 0.0 0.0 0.00 0.00 0.00 100 1011.3
20260905225206 67 310 0.0 0.0 0.00 0.00 0.00 100 1011.2
20260905223206 68 309 0.0 0.0 0.00 0.00 0.00 100 1011.0
20260905223103 68 309 0.0 0.0 0.00 0.00 0.00 100 1011.0
20260905221206 68 309 0.0 0.0 0.00 0.00 0.00 100 1011.0
20260905215206 68 309 0.0 0.0 0.00 0.00 0.00 100 1010.6
20260905213207 68 309 0.0 0.0 0.00 0.00 0.00 100 1010.4
20260905213103 68 309 0.0 0.0 0.00 0.00 0.00 100 1010.4
20260905211206 68 309 0.0 0.0 0.00 0.00 0.00 100 1010.0
20260905205206 69 310 0.0 0.0 0.00 0.00 0.00 4 1010.4
20260905203206 72 309 0.0 0.0 0.00 0.00 0.00 34 1010.2
20260905203103 72 309 0.0 0.0 0.00 0.00 0.00 35 1010.2
20260905201206 72 307 0.0 0.0 0.00 0.00 0.00 37 1010.0
20260905195206 73 53 0.0 0.0 0.00 0.00 0.00 35 1009.6
20260905193207 74 53 0.0 0.0 0.00 0.00 0.00 37 1009.6
20260905193103 74 53 0.0 0.0 0.00 0.00 0.00 37 1009.5
20260905191207 74 58 0.0 0.0 0.00 0.00 0.00 40 1009.4
20260905185207 75 57 0.0 0.0 0.00 0.00 0.00 39 1009.3
20260905183209 75 57 0.0 0.0 0.00 0.00 0.00 39 1009.3
20260905183103 75 57 0.0 0.0 0.00 0.00 0.00 39 1009.3
20260905181206 75 57 0.0 0.0 0.00 0.00 0.00 39 1009.6
20260905175206 76 294 0.0 3.0 0.00 0.00 0.00 38 1009.4
20260905173206 76 296 0.0 3.0 0.00 0.00 0.00 39 1009.3
20260905173104 76 296 0.0 3.0 0.00 0.00 0.00 38 1009.3
20260905171206 76 296 0.0 3.0 0.00 0.00 0.00 33 1009.2
20260905165206 73 296 0.0 0.0 0.00 0.00 0.00 26 1009.3
20260905163206 72 296 0.0 0.0 0.00 0.00 0.00 29 1009.2
20260905163104 72 296 0.0 0.0 0.00 0.00 0.00 29 1009.3
20260905161206 73 294 0.0 0.0 0.00 0.00 0.00 33 1009.3
20260905155206 73 294 0.0 7.0 0.00 0.00 0.00 31 1009.2
20260905153206 74 294 0.0 7.0 0.00 0.00 0.00 33 1009.2
20260905153103 74 294 0.0 7.0 0.00 0.00 0.00 33 1009.2